Time,TemperatureF,DewpointF,PressureIn,WindDirection,WindDirectionDegrees,WindSpeedMPH,WindSpeedGustMPH,Humidity,HourlyPrecipIn,Conditions,Clouds,dailyrainin,SolarRadiationWatts/m^2,SoftwareType,DateUTC
2016-12-07 00:00:00,27.4,22.6,30.02,West,275,4.0,4.0,82,0.00,,,0.00,0,Wunderground v.1.15,2016-12-07 06:00:00,
2016-12-07 00:05:00,27.3,22.5,30.02,WSW,258,5.0,5.0,82,0.00,,,0.00,0,Wunderground v.1.15,2016-12-07 06:05:00,
2016-12-07 00:20:00,27.1,22.0,30.03,West,259,5.0,9.0,81,0.00,,,0.00,0,Wunderground v.1.15,2016-12-07 06:20:00,
2016-12-07 00:25:00,27.1,22.0,30.03,West,279,5.0,9.0,81,0.00,,,0.00,0,Wunderground v.1.15,2016-12-07 06:25:00,
2016-12-07 00:30:00,27.0,21.9,30.03,West,260,5.0,5.0,81,0.00,,,0.00,0,Wunderground v.1.15,2016-12-07 06:30:00,
2016-12-07 00:40:00,27.0,21.7,30.03,WSW,253,5.0,5.0,80,0.00,,,0.00,0,Wunderground v.1.15,2016-12-07 06:40:00,
2016-12-07 00:45:00,27.1,21.5,30.04,West,263,5.0,5.0,79,0.00,,,0.00,0,Wunderground v.1.15,2016-12-07 06:45:00,
2016-12-07 00:50:00,27.1,21.2,30.03,WSW,258,6.0,6.0,78,0.00,,,0.00,0,Wunderground v.1.15,2016-12-07 06:50:00,
2016-12-07 00:55:00,27.1,21.2,30.04,WSW,240,6.0,6.0,78,0.00,,,0.00,0,Wunderground v.1.15,2016-12-07 06:55:00,
2016-12-07 01:00:00,27.1,21.2,30.03,West,280,6.0,6.0,78,0.00,,,0.00,0,Wunderground v.1.15,2016-12-07 07:00:00,
2016-12-07 01:05:00,27.1,21.2,30.04,WSW,242,5.0,6.0,78,0.00,,,0.00,0,Wunderground v.1.15,2016-12-07 07:05:00,
2016-12-07 01:15:00,27.1,21.2,30.04,West,277,5.0,12.0,78,0.00,,,0.00,0,Wunderground v.1.15,2016-12-07 07:15:00,
2016-12-07 01:20:00,27.1,21.2,30.04,WSW,238,5.0,5.0,78,0.00,,,0.00,0,Wunderground v.1.15,2016-12-07 07:20:00,
2016-12-07 01:25:00,27.1,21.5,30.04,WSW,257,5.0,5.0,79,0.00,,,0.00,0,Wunderground v.1.15,2016-12-07 07:25:00,
2016-12-07 01:30:00,27.1,21.5,30.04,WSW,240,5.0,5.0,79,0.00,,,0.00,0,Wunderground v.1.15,2016-12-07 07:30:00,
2016-12-07 01:45:00,27.2,21.5,30.04,WSW,251,6.0,6.0,79,0.00,,,0.00,0,Wunderground v.1.15,2016-12-07 07:45:00,
2016-12-07 01:50:00,27.2,21.5,30.05,West,269,5.0,5.0,79,0.00,,,0.00,0,Wunderground v.1.15,2016-12-07 07:50:00,
2016-12-07 01:55:00,27.2,21.5,30.05,West,260,4.0,5.0,79,0.00,,,0.00,0,Wunderground v.1.15,2016-12-07 07:55:00,
2016-12-07 02:00:00,27.2,21.2,30.05,West,275,5.0,5.0,78,0.00,,,0.00,0,Wunderground v.1.15,2016-12-07 08:00:00,
2016-12-07 02:05:00,27.1,21.2,30.05,WNW,291,4.0,5.0,78,0.00,,,0.00,0,Wunderground v.1.15,2016-12-07 08:05:00,
2016-12-07 02:15:00,27.2,21.2,30.05,West,268,5.0,5.0,78,0.00,,,0.00,0,Wunderground v.1.15,2016-12-07 08:15:00,
2016-12-07 02:20:00,27.2,21.2,30.05,SW,230,5.0,6.0,78,0.00,,,0.00,0,Wunderground v.1.15,2016-12-07 08:20:00,
2016-12-07 02:25:00,27.2,20.9,30.05,West,268,5.0,12.0,77,0.00,,,0.00,0,Wunderground v.1.15,2016-12-07 08:25:00,
2016-12-07 02:30:00,27.3,21.0,30.05,West,268,5.0,5.0,77,0.00,,,0.00,0,Wunderground v.1.15,2016-12-07 08:30:00,
2016-12-07 02:35:00,27.2,20.9,30.05,West,265,4.0,5.0,77,0.00,,,0.00,0,Wunderground v.1.15,2016-12-07 08:35:00,
2016-12-07 02:40:00,27.2,20.9,30.05,WSW,248,4.0,7.0,77,0.00,,,0.00,0,Wunderground v.1.15,2016-12-07 08:40:00,
2016-12-07 02:50:00,27.2,20.6,30.05,WNW,289,6.0,6.0,76,0.00,,,0.00,0,Wunderground v.1.15,2016-12-07 08:50:00,
2016-12-07 02:55:00,27.2,20.6,30.05,West,272,6.0,6.0,76,0.00,,,0.00,0,Wunderground v.1.15,2016-12-07 08:55:00,
2016-12-07 03:00:00,27.2,20.6,30.05,WSW,246,6.0,6.0,76,0.00,,,0.00,0,Wunderground v.1.15,2016-12-07 09:00:00,
2016-12-07 03:05:00,27.1,20.5,30.05,West,263,5.0,14.0,76,0.00,,,0.00,0,Wunderground v.1.15,2016-12-07 09:05:00,
2016-12-07 03:15:00,27.0,20.4,30.05,West,263,5.0,6.0,76,0.00,,,0.00,0,Wunderground v.1.15,2016-12-07 09:15:00,
2016-12-07 03:20:00,27.0,20.4,30.05,WSW,248,5.0,5.0,76,0.00,,,0.00,0,Wunderground v.1.15,2016-12-07 09:20:00,
2016-12-07 03:25:00,26.9,20.3,30.05,West,261,5.0,5.0,76,0.00,,,0.00,0,Wunderground v.1.15,2016-12-07 09:25:00,
2016-12-07 03:30:00,26.7,20.1,30.05,SW,234,4.0,4.0,76,0.00,,,0.00,0,Wunderground v.1.15,2016-12-07 09:30:00,
2016-12-07 03:35:00,26.7,20.1,30.05,West,277,5.0,5.0,76,0.00,,,0.00,0,Wunderground v.1.15,2016-12-07 09:35:00,
2016-12-07 03:40:00,26.7,20.1,30.05,WNW,292,6.0,6.0,76,0.00,,,0.00,0,Wunderground v.1.15,2016-12-07 09:40:00,
2016-12-07 03:45:00,26.6,20.1,30.05,WNW,285,5.0,6.0,76,0.00,,,0.00,0,Wunderground v.1.15,2016-12-07 09:45:00,
2016-12-07 03:55:00,26.5,20.0,30.06,WSW,245,5.0,6.0,76,0.00,,,0.00,0,Wunderground v.1.15,2016-12-07 09:55:00,
2016-12-07 04:00:00,26.5,20.3,30.06,WSW,243,5.0,5.0,77,0.00,,,0.00,0,Wunderground v.1.15,2016-12-07 10:00:00,
2016-12-07 04:05:00,26.4,20.2,30.06,NW,306,5.0,5.0,77,0.00,,,0.00,0,Wunderground v.1.15,2016-12-07 10:05:00,
2016-12-07 04:15:00,26.3,20.1,30.07,WNW,294,5.0,6.0,77,0.00,,,0.00,0,Wunderground v.1.15,2016-12-07 10:15:00,
2016-12-07 04:20:00,26.3,20.1,30.06,NNW,331,5.0,5.0,77,0.00,,,0.00,0,Wunderground v.1.15,2016-12-07 10:20:00,
2016-12-07 04:25:00,26.2,20.0,30.07,WNW,284,5.0,5.0,77,0.00,,,0.00,0,Wunderground v.1.15,2016-12-07 10:25:00,
2016-12-07 04:30:00,26.2,20.3,30.07,West,267,4.0,6.0,78,0.00,,,0.00,0,Wunderground v.1.15,2016-12-07 10:30:00,
2016-12-07 04:35:00,26.2,20.3,30.07,West,275,5.0,6.0,78,0.00,,,0.00,0,Wunderground v.1.15,2016-12-07 10:35:00,
2016-12-07 04:40:00,26.3,20.4,30.07,West,264,5.0,10.0,78,0.00,,,0.00,0,Wunderground v.1.15,2016-12-07 10:40:00,
2016-12-07 04:45:00,26.3,20.4,30.08,West,273,5.0,10.0,78,0.00,,,0.00,0,Wunderground v.1.15,2016-12-07 10:45:00,
2016-12-07 04:50:00,26.4,20.5,30.08,WSW,248,5.0,5.0,78,0.00,,,0.00,0,Wunderground v.1.15,2016-12-07 10:50:00,
2016-12-07 05:00:00,26.5,20.6,30.09,West,263,6.0,6.0,78,0.00,,,0.00,0,Wunderground v.1.15,2016-12-07 11:00:00,
2016-12-07 05:05:00,26.5,20.6,30.09,WSW,257,5.0,6.0,78,0.00,,,0.00,0,Wunderground v.1.15,2016-12-07 11:05:00,
2016-12-07 05:15:00,26.6,20.7,30.09,NW,310,5.0,5.0,78,0.00,,,0.00,0,Wunderground v.1.15,2016-12-07 11:15:00,
2016-12-07 05:20:00,26.6,22.7,30.09,West,268,6.0,6.0,85,0.00,,,0.00,0,Wunderground v.1.15,2016-12-07 11:20:00,
2016-12-07 05:25:00,26.6,22.7,30.09,WSW,254,5.0,6.0,85,0.00,,,0.00,0,Wunderground v.1.15,2016-12-07 11:25:00,
2016-12-07 05:30:00,26.6,20.7,30.09,West,267,6.0,6.0,78,0.00,,,0.00,0,Wunderground v.1.15,2016-12-07 11:30:00,
2016-12-07 05:35:00,26.6,20.7,30.09,WSW,256,6.0,6.0,78,0.00,,,0.00,0,Wunderground v.1.15,2016-12-07 11:35:00,
2016-12-07 05:40:00,26.5,20.6,30.09,West,259,5.0,7.0,78,0.00,,,0.00,0,Wunderground v.1.15,2016-12-07 11:40:00,
2016-12-07 05:45:00,26.5,20.6,30.09,West,269,5.0,7.0,78,0.00,,,0.00,0,Wunderground v.1.15,2016-12-07 11:45:00,
2016-12-07 05:50:00,26.5,20.6,30.09,West,260,5.0,5.0,78,0.00,,,0.00,0,Wunderground v.1.15,2016-12-07 11:50:00,
2016-12-07 05:55:00,26.5,20.6,30.09,West,265,4.0,6.0,78,0.00,,,0.00,0,Wunderground v.1.15,2016-12-07 11:55:00,
2016-12-07 06:05:00,26.5,20.6,30.08,WNW,299,4.0,6.0,78,0.00,,,0.00,0,Wunderground v.1.15,2016-12-07 12:05:00,
2016-12-07 06:15:00,26.5,20.9,30.08,WSW,258,3.0,4.0,79,0.00,,,0.00,0,Wunderground v.1.15,2016-12-07 12:15:00,
2016-12-07 06:20:00,26.4,20.8,30.09,WSW,251,4.0,4.0,79,0.00,,,0.00,0,Wunderground v.1.15,2016-12-07 12:20:00,
2016-12-07 06:25:00,26.4,20.5,30.09,West,268,4.0,4.0,78,0.00,,,0.00,0,Wunderground v.1.15,2016-12-07 12:25:00,
2016-12-07 06:30:00,26.4,20.5,30.10,West,271,4.0,5.0,78,0.00,,,0.00,0,Wunderground v.1.15,2016-12-07 12:30:00,
2016-12-07 06:40:00,26.4,20.5,30.10,WNW,288,5.0,5.0,78,0.00,,,0.00,0,Wunderground v.1.15,2016-12-07 12:40:00,
2016-12-07 06:45:00,26.3,20.4,30.11,WSW,255,5.0,10.0,78,0.00,,,0.00,0,Wunderground v.1.15,2016-12-07 12:45:00,
2016-12-07 06:50:00,26.3,20.4,30.11,West,265,5.0,5.0,78,0.00,,,0.00,0,Wunderground v.1.15,2016-12-07 12:50:00,
2016-12-07 06:55:00,26.2,20.3,30.11,West,265,5.0,5.0,78,0.00,,,0.00,0,Wunderground v.1.15,2016-12-07 12:55:00,
2016-12-07 07:00:00,26.1,20.2,30.10,West,262,5.0,5.0,78,0.00,,,0.00,0,Wunderground v.1.15,2016-12-07 13:00:00,
2016-12-07 07:05:00,26.0,20.1,30.11,WSW,238,6.0,6.0,78,0.00,,,0.00,0,Wunderground v.1.15,2016-12-07 13:05:00,
2016-12-07 07:15:00,25.8,19.9,30.11,WNW,284,4.0,5.0,78,0.00,,,0.00,5,Wunderground v.1.15,2016-12-07 13:15:00,
2016-12-07 07:20:00,25.8,19.9,30.11,West,262,5.0,5.0,78,0.00,,,0.00,7,Wunderground v.1.15,2016-12-07 13:20:00,
2016-12-07 07:25:00,25.8,19.9,30.11,West,259,4.0,5.0,78,0.00,,,0.00,11,Wunderground v.1.15,2016-12-07 13:25:00,
2016-12-07 07:30:00,25.7,19.8,30.11,WNW,290,3.0,3.0,78,0.00,,,0.00,19,Wunderground v.1.15,2016-12-07 13:30:00,
2016-12-07 07:35:00,25.7,19.8,30.11,WNW,287,4.0,4.0,78,0.00,,,0.00,25,Wunderground v.1.15,2016-12-07 13:35:00,
2016-12-07 07:45:00,25.7,20.1,30.11,West,273,4.0,7.0,79,0.00,,,0.00,32,Wunderground v.1.15,2016-12-07 13:45:00,
2016-12-07 07:50:00,25.6,20.0,30.11,WNW,288,4.0,4.0,79,0.00,,,0.00,44,Wunderground v.1.15,2016-12-07 13:50:00,
2016-12-07 07:55:00,25.7,20.1,30.11,West,279,5.0,5.0,79,0.00,,,0.00,53,Wunderground v.1.15,2016-12-07 13:55:00,
2016-12-07 08:05:00,25.8,20.2,30.11,West,263,4.0,4.0,79,0.00,,,0.00,74,Wunderground v.1.15,2016-12-07 14:05:00,
2016-12-07 08:15:00,26.0,20.4,30.11,WSW,252,3.0,6.0,79,0.00,,,0.00,54,Wunderground v.1.15,2016-12-07 14:15:00,
2016-12-07 08:20:00,25.9,20.6,30.11,WSW,255,4.0,4.0,80,0.00,,,0.00,62,Wunderground v.1.15,2016-12-07 14:20:00,
2016-12-07 08:25:00,25.9,20.6,30.11,WSW,244,3.0,4.0,80,0.00,,,0.00,69,Wunderground v.1.15,2016-12-07 14:25:00,
2016-12-07 08:30:00,25.9,20.3,30.11,West,273,3.0,4.0,79,0.00,,,0.00,56,Wunderground v.1.15,2016-12-07 14:30:00,
2016-12-07 08:35:00,25.8,20.2,30.11,West,273,4.0,4.0,79,0.00,,,0.00,77,Wunderground v.1.15,2016-12-07 14:35:00,
2016-12-07 08:40:00,25.8,20.2,30.12,West,277,4.0,4.0,79,0.00,,,0.00,70,Wunderground v.1.15,2016-12-07 14:40:00,
2016-12-07 08:50:00,25.9,20.0,30.12,WSW,254,4.0,4.0,78,0.00,,,0.00,160,Wunderground v.1.15,2016-12-07 14:50:00,
2016-12-07 08:55:00,26.3,20.1,30.13,WSW,254,4.0,5.0,77,0.00,,,0.00,209,Wunderground v.1.15,2016-12-07 14:55:00,
2016-12-07 09:00:00,26.8,20.6,30.13,West,277,4.0,4.0,77,0.00,,,0.00,223,Wunderground v.1.15,2016-12-07 15:00:00,
2016-12-07 09:05:00,27.3,20.4,30.13,West,259,3.0,4.0,75,0.00,,,0.00,272,Wunderground v.1.15,2016-12-07 15:05:00,
2016-12-07 09:15:00,27.7,20.5,30.14,West,268,4.0,4.0,74,0.00,,,0.00,301,Wunderground v.1.15,2016-12-07 15:15:00,
2016-12-07 09:20:00,27.6,20.4,30.14,SW,226,5.0,9.0,74,0.00,,,0.00,239,Wunderground v.1.15,2016-12-07 15:20:00,
2016-12-07 09:25:00,27.3,20.4,30.14,WSW,252,5.0,9.0,75,0.00,,,0.00,265,Wunderground v.1.15,2016-12-07 15:25:00,
2016-12-07 09:30:00,27.5,20.3,30.15,West,266,5.0,8.0,74,0.00,,,0.00,311,Wunderground v.1.15,2016-12-07 15:30:00,
2016-12-07 09:35:00,27.7,20.5,30.15,WSW,243,5.0,8.0,74,0.00,,,0.00,338,Wunderground v.1.15,2016-12-07 15:35:00,
2016-12-07 09:40:00,27.7,20.5,30.15,WSW,253,6.0,6.0,74,0.00,,,0.00,260,Wunderground v.1.15,2016-12-07 15:40:00,
2016-12-07 09:45:00,27.7,20.8,30.15,West,261,5.0,6.0,75,0.00,,,0.00,264,Wunderground v.1.15,2016-12-07 15:45:00,
2016-12-07 09:55:00,27.9,21.0,30.15,WSW,256,6.0,6.0,75,0.00,,,0.00,346,Wunderground v.1.15,2016-12-07 15:55:00,
2016-12-07 10:00:00,28.1,21.2,30.15,WSW,255,6.0,6.0,75,0.00,,,0.00,341,Wunderground v.1.15,2016-12-07 16:00:00,
2016-12-07 10:05:00,28.5,21.3,30.15,SW,225,5.0,6.0,74,0.00,,,0.00,306,Wunderground v.1.15,2016-12-07 16:05:00,
2016-12-07 10:15:00,28.1,20.6,30.15,West,263,5.0,6.0,73,0.00,,,0.00,360,Wunderground v.1.15,2016-12-07 16:15:00,
2016-12-07 10:25:00,29.4,21.8,30.15,WSW,253,4.0,10.0,73,0.00,,,0.00,413,Wunderground v.1.15,2016-12-07 16:25:00,
2016-12-07 10:30:00,29.6,22.0,30.15,WSW,256,5.0,6.0,73,0.00,,,0.00,367,Wunderground v.1.15,2016-12-07 16:30:00,
2016-12-07 10:35:00,29.5,21.6,30.15,West,280,6.0,6.0,72,0.00,,,0.00,445,Wunderground v.1.15,2016-12-07 16:35:00,
2016-12-07 10:40:00,29.8,22.2,30.15,WSW,255,5.0,5.0,73,0.00,,,0.00,464,Wunderground v.1.15,2016-12-07 16:40:00,
2016-12-07 10:45:00,29.9,22.0,30.14,West,277,5.0,5.0,72,0.00,,,0.00,480,Wunderground v.1.15,2016-12-07 16:45:00,
2016-12-07 10:50:00,30.7,22.7,30.14,NW,321,4.0,4.0,72,0.00,,,0.00,450,Wunderground v.1.15,2016-12-07 16:50:00,
2016-12-07 11:00:00,30.7,22.7,30.13,WSW,252,4.0,4.0,72,0.00,,,0.00,385,Wunderground v.1.15,2016-12-07 17:00:00,
2016-12-07 11:05:00,30.3,22.4,30.13,WSW,242,5.0,5.0,72,0.00,,,0.00,473,Wunderground v.1.15,2016-12-07 17:05:00,
2016-12-07 11:15:00,30.8,22.2,30.13,WSW,238,5.0,5.0,70,0.00,,,0.00,475,Wunderground v.1.15,2016-12-07 17:15:00,
2016-12-07 11:20:00,31.5,22.8,30.13,WSW,257,4.0,8.0,70,0.00,,,0.00,471,Wunderground v.1.15,2016-12-07 17:20:00,
2016-12-07 11:30:00,30.7,22.7,30.12,WSW,249,5.0,5.0,72,0.00,,,0.00,466,Wunderground v.1.15,2016-12-07 17:30:00,
2016-12-07 11:35:00,30.9,22.3,30.12,WSW,258,5.0,5.0,70,0.00,,,0.00,466,Wunderground v.1.15,2016-12-07 17:35:00,
2016-12-07 11:40:00,31.5,22.8,30.12,WNW,287,5.0,7.0,70,0.00,,,0.00,466,Wunderground v.1.15,2016-12-07 17:40:00,
2016-12-07 11:45:00,31.5,22.8,30.12,West,263,5.0,7.0,70,0.00,,,0.00,464,Wunderground v.1.15,2016-12-07 17:45:00,